Location: Austin
(30.3000°N, 97.7500°W)
Time: 20:31:25
(UTC-06:00)

Meteor 1-25 Rocket - Visible Passes

Search period start: 26 February 2024 00:00
Search period end: 07 March 2024 00:00
Orbit: 838 x 889 km, 81.2° (Epoch: 26 February)

Date Brightness Start Highest point End Pass type
(mag) Time Alt. Az. Time Alt. Az. Time Alt. Az.
26 Feb 4.0 20:17:47 10° S 20:23:22 75° E 20:29:04 10° NNE visible
26 Feb 7.2 22:06:43 10° WNW 22:07:07 10° WNW 22:07:31 10° WNW visible
27 Feb 4.1 20:09:36 10° S 20:15:12 74° E 20:20:54 10° NNE visible
27 Feb 7.2 21:58:15 10° WNW 21:58:56 10° WNW 21:59:37 10° WNW visible
28 Feb 4.1 20:01:26 10° S 20:07:01 74° E 20:12:44 10° NNE visible
28 Feb 7.2 21:49:52 10° W 21:50:46 10° WNW 21:51:40 10° WNW visible
29 Feb 4.1 19:53:16 10° S 19:58:51 73° E 20:04:33 10° NNE visible
29 Feb 7.3 21:41:32 10° W 21:42:36 10° WNW 21:43:39 10° WNW visible
01 Mar 4.1 19:45:05 10° S 19:50:42 73° E 19:56:24 10° NNE visible
01 Mar 7.3 21:33:13 10° W 21:34:24 11° WNW 21:35:37 10° WNW visible
02 Mar 6.0 06:32:29 10° N 06:37:54 39° ENE 06:43:16 10° SSE visible
02 Mar 4.1 19:36:54 10° S 19:42:31 72° E 19:48:14 10° NNE visible
02 Mar 7.3 21:24:54 10° W 21:26:14 11° WNW 21:27:34 10° NW visible
03 Mar 6.0 06:24:19 10° N 06:29:44 39° ENE 06:35:05 10° SE visible
03 Mar 4.2 19:28:44 10° S 19:34:21 71° E 19:40:04 10° NNE visible
03 Mar 7.3 21:16:36 10° W 21:18:03 11° WNW 21:19:30 10° NW visible
04 Mar 6.0 06:16:11 10° N 06:21:34 38° ENE 06:26:54 10° SE visible
04 Mar 4.2 19:20:34 10° S 19:26:11 71° E 19:31:54 10° NNE visible
04 Mar 7.4 21:08:20 10° W 21:09:53 11° WNW 21:11:26 10° NW visible
05 Mar 6.0 06:08:01 10° N 06:13:24 38° ENE 06:18:43 10° SE visible
05 Mar 4.2 19:12:23 10° S 19:18:00 70° E 19:23:44 10° NNE visible
05 Mar 7.4 21:00:03 10° W 21:01:42 11° WNW 21:03:22 10° NW visible
06 Mar 6.0 05:59:51 10° N 06:05:14 38° ENE 06:10:32 10° SE visible
06 Mar 4.2 19:04:13 10° S 19:09:50 70° E 19:15:34 10° NNE visible
06 Mar 7.4 20:51:48 10° W 20:53:32 11° WNW 20:55:16 10° NW visible
